Location: Rancho Del Sol Observatory
(38.7214°N, 120.6350°W)
Time: 18:29:20
(UTC-08:00)

A-11 Canister half - Pass Details

Date: 27 January 2020
Orbit: 1517 x 1683 km, 47.2° (Epoch: 26 February)

Event Time Altitude Azimuth Distance (km) Brightness Sun altitude
Exits shadow 04:12:26 67° 344° (NNW) 1,624 8.9 -35.2°
Maximum altitude 04:13:28 72° 25° (NNE) 1,582 8.9 -35.0°
Drops below altitude 10° 04:22:46 10° 109° (ESE) 3,706 11.7 -33.2°
Sets 04:25:52 0° 112° (ESE) 4,704 12.5 -32.6°
